Weather History for Winona, MN

Change the Weather History Date:

Tuesday, January 22, 2013

  Actual Average Record
Temperature  
Mean Temperature 2 °F -  
Max Temperature 8 °F 28 °F 51 °F (2002)
Min Temperature -5 °F 13 °F -7 °F (1975)
Degree Days  
Heating Degree Days 64    
Moisture  
Dew Point -10 °F    
Average Humidity 59    
Maximum Humidity 71    
Minimum Humidity 48    
Precipitation  
Precipitation 0.00 in - - ()
Sea Level Pressure  
Sea Level Pressure 30.35 in    
Wind  
Wind Speed 5 mph (WNW)    
Max Wind Speed 10 mph    
Max Gust Speed -    
Visibility 10 miles    
Events      
Averages and records for this station are not official NWS values.
T = Trace of Precipitation, MM = Missing Value Source: NWS Daily Summary

Daily Weather History Graph

Daily Weather History Graph

Search for Another Location

Airport:

Trip Planner

Search our weather history database for the weather conditions in past years. The results will help you decide how hot, cold, wet, or windy it might be!

Date:

Astronomy

Jan. 22, 2013 Rise Set
Actual Time 7:33 AM CST 5:03 PM CST
Civil Twilight 7:02 AM CST 5:35 PM CST
Nautical Twilight 6:26 AM CST 6:10 PM CST
Astronomical Twilight 5:52 AM CST 6:44 PM CST
Moon 1:25 PM CST (1/22) 3:57 AM CST (1/22)
Length of Visible Light 10h 33m
Length of Day
9h 30m
Waxing Gibbous, 83% of the Moon is Illuminated
Jan 22
Waxing Gibbous
Jan 26
Full
Feb 3
Last Quarter
Feb 10
New
Feb 17
First Quarter

Hourly Weather History & Observations

Time (CST) Temp. Windchill Dew Point Humidity Pressure Visibility Wind Dir Wind Speed Gust Speed Precip Events Conditions
12:15 AM -4.0 °F -16.3 °F -13.0 °F 65% 30.32 in 10.0 mi WNW 5.8 mph - N/A   Clear
12:34 AM -4.0 °F -16.3 °F -13.0 °F 65% 30.31 in 10.0 mi WNW 5.8 mph - N/A   Clear
12:54 AM -4.0 °F -16.3 °F -13.0 °F 65% 30.32 in 10.0 mi WNW 5.8 mph - N/A   Clear
1:14 AM -4.0 °F -19.0 °F -13.0 °F 65% 30.33 in 10.0 mi West 8.1 mph - N/A   Clear
1:34 AM -4.0 °F -14.6 °F -13.0 °F 65% 30.34 in 10.0 mi WNW 4.6 mph - N/A   Clear
1:55 AM -4.0 °F -16.3 °F -13.0 °F 65% 30.34 in 10.0 mi WNW 5.8 mph - N/A   Clear
2:14 AM -4.0 °F -14.6 °F -13.0 °F 65% 30.34 in 10.0 mi WNW 4.6 mph - N/A   Clear
2:34 AM -4.0 °F -16.3 °F -13.0 °F 65% 30.35 in 10.0 mi WNW 5.8 mph - N/A   Clear
2:55 AM -4.0 °F -16.3 °F -13.0 °F 65% 30.35 in 10.0 mi WNW 5.8 mph - N/A   Clear
3:14 AM -4.0 °F -14.6 °F -13.0 °F 65% 30.35 in 10.0 mi WNW 4.6 mph - N/A   Clear
3:34 AM -4.0 °F -14.6 °F -13.0 °F 65% 30.34 in 10.0 mi NW 4.6 mph - N/A   Clear
3:55 AM -5.8 °F -14.5 °F -13.0 °F 71% 30.34 in 10.0 mi WNW 3.5 mph - N/A   Clear
4:14 AM -4.0 °F -12.4 °F -11.2 °F 71% 30.34 in 10.0 mi WNW 3.5 mph - N/A   Clear
4:34 AM -4.0 °F -16.3 °F -11.2 °F 71% 30.33 in 10.0 mi WNW 5.8 mph - N/A   Clear
4:55 AM -4.0 °F -17.8 °F -11.2 °F 71% 30.34 in 10.0 mi WNW 6.9 mph - N/A   Clear
5:14 AM -4.0 °F -17.8 °F -13.0 °F 65% 30.34 in 10.0 mi NW 6.9 mph - N/A   Clear
5:34 AM -5.8 °F -18.4 °F -13.0 °F 71% 30.34 in 10.0 mi WNW 5.8 mph - N/A   Clear
5:55 AM -4.0 °F -16.3 °F -11.2 °F 71% 30.35 in 10.0 mi NW 5.8 mph - N/A   Clear
6:14 AM -4.0 °F -17.8 °F -11.2 °F 71% 30.35 in 10.0 mi NW 6.9 mph - N/A   Clear
6:34 AM -5.8 °F -19.9 °F -13.0 °F 71% 30.35 in 10.0 mi NW 6.9 mph - N/A   Scattered Clouds
6:55 AM -5.8 °F -16.7 °F -13.0 °F 71% 30.36 in 10.0 mi NW 4.6 mph - N/A   Scattered Clouds
7:14 AM -5.8 °F -21.2 °F -13.0 °F 71% 30.37 in 7.0 mi NW 8.1 mph - N/A   Mostly Cloudy
7:34 AM -5.8 °F -18.4 °F -13.0 °F 71% 30.37 in 10.0 mi NW 5.8 mph - N/A   Scattered Clouds
7:55 AM -5.8 °F -18.4 °F -13.0 °F 71% 30.38 in 10.0 mi NW 5.8 mph - N/A   Clear
8:14 AM -5.8 °F -18.4 °F -13.0 °F 71% 30.38 in 10.0 mi NNW 5.8 mph - N/A   Clear
8:34 AM -4.0 °F -19.0 °F -13.0 °F 65% 30.38 in 10.0 mi NW 8.1 mph - N/A   Clear
8:55 AM -4.0 °F -17.8 °F -13.0 °F 65% 30.39 in 10.0 mi NW 6.9 mph - N/A   Clear
9:14 AM -4.0 °F -21.2 °F -13.0 °F 65% 30.38 in 10.0 mi NW 10.4 mph - N/A   Clear
9:34 AM -4.0 °F -16.3 °F -13.0 °F 65% 30.39 in 10.0 mi West 5.8 mph - N/A   Clear
9:55 AM -0.4 °F -13.4 °F -13.0 °F 55% 30.40 in 10.0 mi WNW 6.9 mph - N/A   Clear
10:14 AM -0.4 °F -13.4 °F -13.0 °F 55% 30.41 in 10.0 mi WNW 6.9 mph - N/A   Clear
10:35 AM -0.4 °F -8.3 °F -13.0 °F 55% 30.42 in 10.0 mi WNW 3.5 mph - N/A   Clear
10:55 AM 1.4 °F -6.2 °F -11.2 °F 56% 30.41 in 10.0 mi North 3.5 mph - N/A   Clear
11:14 AM 1.4 °F - -11.2 °F 56% 30.40 in 10.0 mi Calm Calm - N/A   Clear
11:35 AM 1.4 °F - -13.0 °F 51% 30.39 in 10.0 mi Calm Calm - N/A   Clear
11:55 AM 1.4 °F -6.2 °F -13.0 °F 51% 30.39 in 10.0 mi NW 3.5 mph - N/A   Clear
12:14 PM 3.2 °F -7.8 °F -11.2 °F 51% 30.38 in 10.0 mi WNW 5.8 mph - N/A   Clear
12:35 PM 3.2 °F -7.8 °F -11.2 °F 51% 30.37 in 10.0 mi WNW 5.8 mph - N/A   Clear
12:55 PM 5.0 °F -4.1 °F -9.4 °F 52% 30.37 in 10.0 mi West 4.6 mph - N/A   Clear
1:14 PM 5.0 °F -8.1 °F -9.4 °F 52% 30.36 in 10.0 mi WNW 8.1 mph - N/A   Clear
1:35 PM 5.0 °F -6.9 °F -9.4 °F 52% 30.36 in 10.0 mi WNW 6.9 mph - N/A   Clear
1:55 PM 5.0 °F -5.6 °F -9.4 °F 52% 30.36 in 10.0 mi West 5.8 mph - N/A   Clear
2:14 PM 5.0 °F -9.1 °F -9.4 °F 52% 30.36 in 10.0 mi WNW 9.2 mph - N/A   Clear
2:35 PM 5.0 °F -8.1 °F -9.4 °F 52% 30.36 in 10.0 mi WNW 8.1 mph - N/A   Clear
2:54 PM 5.0 °F - -9.4 °F 52% 30.36 in 10.0 mi Calm Calm - N/A   Clear
3:14 PM 5.0 °F -9.1 °F -9.4 °F 52% 30.36 in 10.0 mi WNW 9.2 mph - N/A   Clear
3:35 PM 8.6 °F -2.6 °F -7.6 °F 48% 30.35 in 10.0 mi WNW 6.9 mph - N/A   Clear
3:54 PM 8.6 °F -2.6 °F -7.6 °F 48% 30.35 in 10.0 mi WNW 6.9 mph - N/A   Clear
4:14 PM 8.6 °F -2.6 °F -7.6 °F 48% 30.34 in 10.0 mi NW 6.9 mph - N/A   Clear
4:35 PM 5.0 °F -5.6 °F -9.4 °F 52% 30.34 in 10.0 mi West 5.8 mph - N/A   Clear
4:54 PM 5.0 °F -6.9 °F -9.4 °F 52% 30.34 in 10.0 mi WNW 6.9 mph - N/A   Clear
5:14 PM 5.0 °F -5.6 °F -9.4 °F 52% 30.34 in 10.0 mi WNW 5.8 mph - N/A   Clear
5:35 PM 5.0 °F -4.1 °F -9.4 °F 52% 30.34 in 10.0 mi WNW 4.6 mph - N/A   Clear
5:54 PM 5.0 °F -4.1 °F -7.6 °F 56% 30.34 in 10.0 mi WNW 4.6 mph - N/A   Clear
6:14 PM 5.0 °F -2.1 °F -7.6 °F 56% 30.34 in 10.0 mi WNW 3.5 mph - N/A   Clear
6:35 PM 5.0 °F -2.1 °F -7.6 °F 56% 30.34 in 10.0 mi WNW 3.5 mph - N/A   Clear
6:54 PM 5.0 °F - -7.6 °F 56% 30.33 in 10.0 mi Calm Calm - N/A   Clear
7:14 PM 5.0 °F - -7.6 °F 56% 30.32 in 10.0 mi Calm Calm - N/A   Clear
7:35 PM 5.0 °F -2.1 °F -7.6 °F 56% 30.32 in 10.0 mi West 3.5 mph - N/A   Scattered Clouds
7:54 PM 5.0 °F - -7.6 °F 56% 30.31 in 10.0 mi Calm Calm - N/A   Mostly Cloudy
8:15 PM 5.0 °F - -7.6 °F 56% 30.31 in 10.0 mi Calm Calm - N/A   Mostly Cloudy
8:34 PM 5.0 °F - -7.6 °F 56% 30.30 in 10.0 mi Calm Calm - N/A   Overcast
8:54 PM 5.0 °F -2.1 °F -7.6 °F 56% 30.30 in 10.0 mi WSW 3.5 mph - N/A   Overcast
9:15 PM 5.0 °F - -7.6 °F 56% 30.31 in 10.0 mi Calm Calm - N/A   Overcast
9:34 PM 6.8 °F - -7.6 °F 52% 30.31 in 10.0 mi Calm Calm - N/A   Overcast
9:54 PM 8.6 °F - -5.8 °F 52% 30.30 in 10.0 mi Calm Calm - N/A   Overcast
10:15 PM 8.6 °F - -4.0 °F 57% 30.31 in 10.0 mi Calm Calm - N/A   Overcast
10:34 PM 8.6 °F - -4.0 °F 57% 30.30 in 10.0 mi Calm Calm - N/A   Overcast
10:54 PM 8.6 °F - -4.0 °F 57% 30.29 in 10.0 mi Calm Calm - N/A   Overcast
11:15 PM 8.6 °F - -4.0 °F 57% 30.29 in 10.0 mi Calm Calm - N/A   Overcast
11:34 PM 8.6 °F 0.1 °F -4.0 °F 57% 30.28 in 10.0 mi SW 4.6 mph - N/A   Overcast
11:54 PM 8.6 °F 2.0 °F -4.0 °F 57% 30.27 in 10.0 mi SW 3.5 mph - N/A   Overcast